Year,Month,Day,Hour,Minute,Value (Times are PST for temperature in C)
2017,01,03,00,00,-9.40
2017,01,03,00,01,-9.40
2017,01,03,00,02,-9.40
2017,01,03,00,03,-9.40
2017,01,03,00,04,-9.40
2017,01,03,00,05,-9.40
2017,01,03,00,06,-9.50
2017,01,03,00,07,-9.50
2017,01,03,00,08,-9.50
2017,01,03,00,09,-9.50
2017,01,03,00,10,-9.50
2017,01,03,00,11,-9.50
2017,01,03,00,12,-9.60
2017,01,03,00,13,-9.60
2017,01,03,00,14,-9.60
2017,01,03,00,15,-9.60
2017,01,03,00,16,-9.60
2017,01,03,00,17,-9.60
2017,01,03,00,18,-9.60
2017,01,03,00,19,-9.70
2017,01,03,00,20,-9.70
2017,01,03,00,21,-9.70
2017,01,03,00,22,-9.70
2017,01,03,00,23,-9.70
2017,01,03,00,24,-9.70
2017,01,03,00,25,-9.70
2017,01,03,00,26,-9.70
2017,01,03,00,27,-9.70
2017,01,03,00,28,-9.70
2017,01,03,00,29,-9.70
2017,01,03,00,30,-9.70
2017,01,03,00,31,-9.70
2017,01,03,00,32,-9.70
2017,01,03,00,33,-9.70
2017,01,03,00,34,-9.70
2017,01,03,00,35,-9.70
2017,01,03,00,36,-9.70
2017,01,03,00,37,-9.70
2017,01,03,00,38,-9.70
2017,01,03,00,39,-9.70
2017,01,03,00,40,-9.70
2017,01,03,00,41,-9.70
2017,01,03,00,42,-9.70
2017,01,03,00,43,-9.70
2017,01,03,00,44,-9.70
2017,01,03,00,45,-9.70
2017,01,03,00,46,-9.70
2017,01,03,00,47,-9.70
2017,01,03,00,48,-9.70
2017,01,03,00,49,-9.70
2017,01,03,00,50,-9.70
2017,01,03,00,51,-9.70
2017,01,03,00,52,-9.80
2017,01,03,00,53,-9.80
2017,01,03,00,54,-9.80
2017,01,03,00,55,-9.80
2017,01,03,00,56,-9.80
2017,01,03,00,57,-9.80
2017,01,03,00,58,-9.80
2017,01,03,00,59,-9.80
2017,01,03,01,00,-9.80
2017,01,03,01,01,-9.80
2017,01,03,01,02,-9.80
2017,01,03,01,03,-9.80
2017,01,03,01,04,-9.70
2017,01,03,01,05,-9.70
2017,01,03,01,06,-9.70
2017,01,03,01,07,-9.70
2017,01,03,01,08,-9.70
2017,01,03,01,09,-9.80
2017,01,03,01,10,-9.80
2017,01,03,01,11,-9.80
2017,01,03,01,12,-9.80
2017,01,03,01,13,-9.80
2017,01,03,01,14,-9.80
2017,01,03,01,15,-9.80
2017,01,03,01,16,-9.80
2017,01,03,01,17,-9.80
2017,01,03,01,18,-9.80
2017,01,03,01,19,-9.80
2017,01,03,01,20,-9.70
2017,01,03,01,21,-9.70
2017,01,03,01,22,-9.70
2017,01,03,01,23,-9.70
2017,01,03,01,24,-9.70
2017,01,03,01,25,-9.70
2017,01,03,01,26,-9.70
2017,01,03,01,27,-9.70
2017,01,03,01,28,-9.70
2017,01,03,01,29,-9.70
2017,01,03,01,30,-9.70
2017,01,03,01,31,-9.70
2017,01,03,01,32,-9.70
2017,01,03,01,33,-9.80
2017,01,03,01,34,-9.80
2017,01,03,01,35,-9.80
2017,01,03,01,36,-9.80
2017,01,03,01,37,-9.80
2017,01,03,01,38,-9.80
2017,01,03,01,39,-9.90
2017,01,03,01,40,-9.90
2017,01,03,01,41,-9.90
2017,01,03,01,42,-9.90
2017,01,03,01,43,-10.00
2017,01,03,01,44,-10.00
2017,01,03,01,45,-10.00
2017,01,03,01,46,-10.00
2017,01,03,01,47,-10.00
2017,01,03,01,48,-10.10
2017,01,03,01,49,-10.10
2017,01,03,01,50,-10.10
2017,01,03,01,51,-10.10
2017,01,03,01,52,-10.10
2017,01,03,01,53,-10.20
2017,01,03,01,54,-10.20
2017,01,03,01,55,-10.20
2017,01,03,01,56,-10.20
2017,01,03,01,57,-10.20
2017,01,03,01,58,-10.20
2017,01,03,01,59,-10.20
2017,01,03,02,00,-10.20
2017,01,03,02,01,-10.20
2017,01,03,02,02,-10.20
2017,01,03,02,03,-10.20
2017,01,03,02,04,-10.20
2017,01,03,02,05,-10.20
2017,01,03,02,06,-10.20
2017,01,03,02,07,-10.20
2017,01,03,02,08,-10.20
2017,01,03,02,09,-10.20
2017,01,03,02,10,-10.20
2017,01,03,02,11,-10.20
2017,01,03,02,12,-10.20
2017,01,03,02,13,-10.20
2017,01,03,02,14,-10.20
2017,01,03,02,15,-10.20
2017,01,03,02,16,-10.20
2017,01,03,02,17,-10.20
2017,01,03,02,18,-10.20
2017,01,03,02,19,-10.20
2017,01,03,02,20,-10.20
2017,01,03,02,21,-10.20
2017,01,03,02,22,-10.20
2017,01,03,02,23,-10.20
2017,01,03,02,24,-10.20
2017,01,03,02,25,-10.20
2017,01,03,02,26,-10.20
2017,01,03,02,27,-10.20
2017,01,03,02,28,-10.20
2017,01,03,02,29,-10.20
2017,01,03,02,30,-10.20
2017,01,03,02,31,-10.20
2017,01,03,02,32,-10.20
2017,01,03,02,33,-10.30
2017,01,03,02,34,-10.30
2017,01,03,02,35,-10.30
2017,01,03,02,36,-10.30
2017,01,03,02,37,-10.30
2017,01,03,02,38,-10.30
2017,01,03,02,39,-10.30
2017,01,03,02,40,-10.30
2017,01,03,02,41,-10.30
2017,01,03,02,42,-10.30
2017,01,03,02,43,-10.30
2017,01,03,02,44,-10.30
2017,01,03,02,45,-10.30
2017,01,03,02,46,-10.30
2017,01,03,02,47,-10.30
2017,01,03,02,48,-10.30
2017,01,03,02,49,-10.30
2017,01,03,02,50,-10.30
2017,01,03,02,51,-10.30
2017,01,03,02,52,-10.30
2017,01,03,02,53,-10.40
2017,01,03,02,54,-10.40
2017,01,03,02,55,-10.40
2017,01,03,02,56,-10.40
2017,01,03,02,57,-10.40
2017,01,03,02,58,-10.40
2017,01,03,02,59,-10.40
2017,01,03,03,00,-10.40
2017,01,03,03,01,-10.40
2017,01,03,03,02,-10.40
2017,01,03,03,03,-10.40
2017,01,03,03,04,-10.50
2017,01,03,03,05,-10.50
2017,01,03,03,06,-10.50
2017,01,03,03,07,-10.50
2017,01,03,03,08,-10.50
2017,01,03,03,09,-10.50
2017,01,03,03,10,-10.60
2017,01,03,03,11,-10.60
2017,01,03,03,12,-10.60
2017,01,03,03,13,-10.60
2017,01,03,03,14,-10.60
2017,01,03,03,15,-10.60
2017,01,03,03,16,-10.60
2017,01,03,03,17,-10.60
2017,01,03,03,18,-10.60
2017,01,03,03,19,-10.60
2017,01,03,03,20,-10.60
2017,01,03,03,21,-10.60
2017,01,03,03,22,-10.60
2017,01,03,03,23,-10.60
2017,01,03,03,24,-10.60
2017,01,03,03,25,-10.60
2017,01,03,03,26,-10.60
2017,01,03,03,27,-10.60
2017,01,03,03,28,-10.60
2017,01,03,03,29,-10.60
2017,01,03,03,30,-10.60
2017,01,03,03,31,-10.60
2017,01,03,03,32,-10.60
2017,01,03,03,33,-10.60
2017,01,03,03,34,-10.60
2017,01,03,03,35,-10.60
2017,01,03,03,36,-10.60
2017,01,03,03,37,-10.70
2017,01,03,03,38,-10.70
2017,01,03,03,39,-10.70
2017,01,03,03,40,-10.70
2017,01,03,03,41,-10.70
2017,01,03,03,42,-10.70
2017,01,03,03,43,-10.70
2017,01,03,03,44,-10.70
2017,01,03,03,45,-10.70
2017,01,03,03,46,-10.70
2017,01,03,03,47,-10.70
2017,01,03,03,48,-10.70
2017,01,03,03,49,-10.70
2017,01,03,03,50,-10.70
2017,01,03,03,51,-10.70
2017,01,03,03,52,-10.80
2017,01,03,03,53,-10.80
2017,01,03,03,54,-10.80
2017,01,03,03,55,-10.80
2017,01,03,03,56,-10.80
2017,01,03,03,57,-10.80
2017,01,03,03,58,-10.80
2017,01,03,03,59,-10.80
2017,01,03,04,00,-10.80
2017,01,03,04,01,-10.80
2017,01,03,04,02,-10.80
2017,01,03,04,03,-10.80
2017,01,03,04,04,-10.80
2017,01,03,04,05,-10.80
2017,01,03,04,06,-10.80
2017,01,03,04,07,-10.80
2017,01,03,04,08,-10.80
2017,01,03,04,09,-10.90
2017,01,03,04,10,-10.80
2017,01,03,04,11,-10.80
2017,01,03,04,12,-10.80
2017,01,03,04,13,-10.80
2017,01,03,04,14,-10.90
2017,01,03,04,15,-10.90
2017,01,03,04,16,-10.90
2017,01,03,04,17,-10.90
2017,01,03,04,18,-10.90
2017,01,03,04,19,-10.90
2017,01,03,04,20,-11.00
2017,01,03,04,21,-11.00
2017,01,03,04,22,-11.00
2017,01,03,04,23,-11.00
2017,01,03,04,24,-11.00
2017,01,03,04,25,-11.00
2017,01,03,04,26,-11.00
2017,01,03,04,27,-11.00
2017,01,03,04,28,-11.00
2017,01,03,04,29,-11.00
2017,01,03,04,30,-10.90
2017,01,03,04,31,-10.90
2017,01,03,04,32,-10.90
2017,01,03,04,33,-10.90
2017,01,03,04,34,-10.90
2017,01,03,04,35,-10.90
2017,01,03,04,36,-10.90
2017,01,03,04,37,-10.80
2017,01,03,04,38,-10.80
2017,01,03,04,39,-10.80
2017,01,03,04,40,-10.80
2017,01,03,04,41,-10.80
2017,01,03,04,42,-10.80
2017,01,03,04,43,-10.90
2017,01,03,04,44,-10.90
2017,01,03,04,45,-10.90
2017,01,03,04,46,-10.90
2017,01,03,04,47,-10.90
2017,01,03,04,48,-10.90
2017,01,03,04,49,-10.90
2017,01,03,04,50,-10.90
2017,01,03,04,51,-10.90
2017,01,03,04,52,-10.90
2017,01,03,04,53,-10.90
2017,01,03,04,54,-10.80
2017,01,03,04,55,-10.80
2017,01,03,04,56,-10.80
2017,01,03,04,57,-10.80
2017,01,03,04,58,-10.80
2017,01,03,04,59,-10.80
2017,01,03,05,00,-10.80
2017,01,03,05,01,-10.90
2017,01,03,05,02,-10.90
2017,01,03,05,03,-10.90
2017,01,03,05,04,-10.90
2017,01,03,05,05,-10.90
2017,01,03,05,06,-11.00
2017,01,03,05,07,-11.00
2017,01,03,05,08,-11.00
2017,01,03,05,09,-11.10
2017,01,03,05,10,-11.10
2017,01,03,05,11,-11.10
2017,01,03,05,12,-11.10
2017,01,03,05,13,-11.00
2017,01,03,05,14,-11.00
2017,01,03,05,15,-11.00
2017,01,03,05,16,-11.00
2017,01,03,05,17,-11.00
2017,01,03,05,18,-10.90
2017,01,03,05,19,-10.90
2017,01,03,05,20,-10.90
2017,01,03,05,21,-10.90
2017,01,03,05,22,-10.80
2017,01,03,05,23,-10.80
2017,01,03,05,24,-10.80
2017,01,03,05,25,-10.80
2017,01,03,05,26,-10.80
2017,01,03,05,27,-10.80
2017,01,03,05,28,-10.80
2017,01,03,05,29,-10.80
2017,01,03,05,30,-10.80
2017,01,03,05,31,-10.80
2017,01,03,05,32,-10.80
2017,01,03,05,33,-10.80
2017,01,03,05,34,-10.80
2017,01,03,05,35,-10.80
2017,01,03,05,36,-10.80
2017,01,03,05,37,-10.80
2017,01,03,05,38,-10.80
2017,01,03,05,39,-10.80
2017,01,03,05,40,-10.80
2017,01,03,05,41,-10.80
2017,01,03,05,42,-10.80
2017,01,03,05,43,-10.80
2017,01,03,05,44,-10.80
2017,01,03,05,45,-10.80
2017,01,03,05,46,-10.80
2017,01,03,05,47,-10.80
2017,01,03,05,48,-10.90
2017,01,03,05,49,-10.90
2017,01,03,05,50,-10.90
2017,01,03,05,51,-10.90
2017,01,03,05,52,-10.90
2017,01,03,05,53,-11.00
2017,01,03,05,54,-11.00
2017,01,03,05,55,-11.00
2017,01,03,05,56,-11.00
2017,01,03,05,57,-11.00
2017,01,03,05,58,-11.10
2017,01,03,05,59,-11.10
2017,01,03,06,00,-11.10
2017,01,03,06,01,-11.10
2017,01,03,06,02,-11.10
2017,01,03,06,03,-11.10
2017,01,03,06,04,-11.10
2017,01,03,06,05,-11.10
2017,01,03,06,06,-11.10
2017,01,03,06,07,-11.10
2017,01,03,06,08,-11.10
2017,01,03,06,09,-11.10
2017,01,03,06,10,-11.10
2017,01,03,06,11,-11.10
2017,01,03,06,12,-11.20
2017,01,03,06,13,-11.20
2017,01,03,06,14,-11.20
2017,01,03,06,15,-11.20
2017,01,03,06,16,-11.20
2017,01,03,06,17,-11.20
2017,01,03,06,18,-11.20
2017,01,03,06,19,-11.30
2017,01,03,06,20,-11.30
2017,01,03,06,21,-11.30
2017,01,03,06,22,-11.30
2017,01,03,06,23,-11.30
2017,01,03,06,24,-11.30
2017,01,03,06,25,-11.30
2017,01,03,06,26,-11.40
2017,01,03,06,27,-11.40
2017,01,03,06,28,-11.40
2017,01,03,06,29,-11.40
2017,01,03,06,30,-11.40
2017,01,03,06,31,-11.40
2017,01,03,06,32,-11.40
2017,01,03,06,33,-11.40
2017,01,03,06,34,-11.40
2017,01,03,06,35,-11.40
2017,01,03,06,36,-11.40
2017,01,03,06,37,-11.40
2017,01,03,06,38,-11.40
2017,01,03,06,39,-11.40
2017,01,03,06,40,-11.40
2017,01,03,06,41,-11.40
2017,01,03,06,42,-11.50
2017,01,03,06,43,-11.50
2017,01,03,06,44,-11.50
2017,01,03,06,45,-11.50
2017,01,03,06,46,-11.60
2017,01,03,06,47,-11.60
2017,01,03,06,48,-11.60
2017,01,03,06,49,-11.60
2017,01,03,06,50,-11.60
2017,01,03,06,51,-11.60
2017,01,03,06,52,-11.70
2017,01,03,06,53,-11.70
2017,01,03,06,54,-11.70
2017,01,03,06,55,-11.70
2017,01,03,06,56,-11.70
2017,01,03,06,57,-11.70
2017,01,03,06,58,-11.70
2017,01,03,06,59,-11.70
2017,01,03,07,00,-11.70
2017,01,03,07,01,-11.70
2017,01,03,07,02,-11.70
2017,01,03,07,03,-11.70
2017,01,03,07,04,-11.70
2017,01,03,07,05,-11.70
2017,01,03,07,06,-11.70
2017,01,03,07,07,-11.70
2017,01,03,07,08,-11.70
2017,01,03,07,09,-11.70
2017,01,03,07,10,-11.70
2017,01,03,07,11,-11.70
2017,01,03,07,12,-11.80
2017,01,03,07,13,-11.80
2017,01,03,07,14,-11.80
2017,01,03,07,15,-11.80
2017,01,03,07,16,-11.80
2017,01,03,07,17,-11.80
2017,01,03,07,18,-11.80
2017,01,03,07,19,-11.80
2017,01,03,07,20,-11.80
2017,01,03,07,21,-11.80
2017,01,03,07,22,-11.80
2017,01,03,07,23,-11.80
2017,01,03,07,24,-11.80
2017,01,03,07,25,-11.80
2017,01,03,07,26,-11.80
2017,01,03,07,27,-11.80
2017,01,03,07,28,-11.80
2017,01,03,07,29,-11.80
2017,01,03,07,30,-11.80
2017,01,03,07,31,-11.80
2017,01,03,07,32,-11.80
2017,01,03,07,33,-11.80
2017,01,03,07,34,-11.70
2017,01,03,07,35,-11.70
2017,01,03,07,36,-11.70
2017,01,03,07,37,-11.70
2017,01,03,07,38,-11.70
2017,01,03,07,39,-11.70
2017,01,03,07,40,-11.70
2017,01,03,07,41,-11.80
2017,01,03,07,42,-11.80
2017,01,03,07,43,-11.80
2017,01,03,07,44,-11.80
2017,01,03,07,45,-11.80
2017,01,03,07,46,-11.80
2017,01,03,07,47,-11.80
2017,01,03,07,48,-11.80
2017,01,03,07,49,-11.80
2017,01,03,07,50,-11.80
2017,01,03,07,51,-11.80
2017,01,03,07,52,-11.80
2017,01,03,07,53,-11.80
2017,01,03,07,54,-11.80
2017,01,03,07,55,-11.80
2017,01,03,07,56,-11.80
2017,01,03,07,57,-11.80
2017,01,03,07,58,-11.80
2017,01,03,07,59,-11.80
2017,01,03,08,00,-11.80
2017,01,03,08,01,-11.80
2017,01,03,08,02,-11.80
2017,01,03,08,03,-11.80
2017,01,03,08,04,-11.80
2017,01,03,08,05,-11.80
2017,01,03,08,06,-11.80
2017,01,03,08,07,-11.80
2017,01,03,08,08,-11.80
2017,01,03,08,09,-11.80
2017,01,03,08,10,-11.80
2017,01,03,08,11,-11.80
2017,01,03,08,12,-11.80
2017,01,03,08,13,-11.80
2017,01,03,08,14,-11.80
2017,01,03,08,15,-11.80
2017,01,03,08,16,-11.90
2017,01,03,08,17,-11.90
2017,01,03,08,18,-11.90
2017,01,03,08,19,-11.90
2017,01,03,08,20,-11.90
2017,01,03,08,21,-11.90
2017,01,03,08,22,-11.90
2017,01,03,08,23,-11.90
2017,01,03,08,24,-11.90
2017,01,03,08,25,-11.90
2017,01,03,08,26,-11.90
2017,01,03,08,27,-11.90
2017,01,03,08,28,-11.90
2017,01,03,08,29,-11.90
2017,01,03,08,30,-11.90
2017,01,03,08,31,-11.90
2017,01,03,08,32,-11.90
2017,01,03,08,33,-11.90
2017,01,03,08,34,-11.90
2017,01,03,08,35,-11.90
2017,01,03,08,36,-11.90
2017,01,03,08,37,-11.90
2017,01,03,08,38,-11.90
2017,01,03,08,39,-12.00
2017,01,03,08,40,-12.00
2017,01,03,08,41,-12.00
2017,01,03,08,42,-12.00
2017,01,03,08,43,-12.00
2017,01,03,08,44,-12.00
2017,01,03,08,45,-12.00
2017,01,03,08,46,-12.00
2017,01,03,08,47,-12.00
2017,01,03,08,48,-12.00
2017,01,03,08,49,-12.00
2017,01,03,08,50,-12.00
2017,01,03,08,51,-12.00
2017,01,03,08,52,-12.00
2017,01,03,08,53,-12.00
2017,01,03,08,54,-12.00
2017,01,03,08,55,-12.00
2017,01,03,08,56,-12.00
2017,01,03,08,57,-12.00
2017,01,03,08,58,-12.00
2017,01,03,08,59,-12.00
2017,01,03,09,00,-12.00
2017,01,03,09,01,-11.90
2017,01,03,09,02,-11.90
2017,01,03,09,03,-11.90
2017,01,03,09,04,-11.90
2017,01,03,09,05,-12.00
2017,01,03,09,06,-12.00
2017,01,03,09,07,-12.00
2017,01,03,09,08,-12.00
2017,01,03,09,09,-12.00
2017,01,03,09,10,-12.00
2017,01,03,09,11,-12.00
2017,01,03,09,12,-12.00
2017,01,03,09,13,-12.00
2017,01,03,09,14,-12.00
2017,01,03,09,15,-12.00
2017,01,03,09,16,-12.00
2017,01,03,09,17,-12.00
2017,01,03,09,18,-12.00
2017,01,03,09,19,-11.90
2017,01,03,09,20,-11.90
2017,01,03,09,21,-11.80
2017,01,03,09,22,-11.80
2017,01,03,09,23,-11.80
2017,01,03,09,24,-11.70
2017,01,03,09,25,-11.70
2017,01,03,09,26,-11.60
2017,01,03,09,27,-11.50
2017,01,03,09,28,-11.50
2017,01,03,09,29,-11.50
2017,01,03,09,30,-11.40
2017,01,03,09,31,-11.40
2017,01,03,09,32,-11.40
2017,01,03,09,33,-11.40
2017,01,03,09,34,-11.30
2017,01,03,09,35,-11.30
2017,01,03,09,36,-11.30
2017,01,03,09,37,-11.20
2017,01,03,09,38,-11.10
2017,01,03,09,39,-11.00
2017,01,03,09,40,-11.00
2017,01,03,09,41,-10.90
2017,01,03,09,42,-10.90
2017,01,03,09,43,-10.90
2017,01,03,09,44,-10.80
2017,01,03,09,45,-10.70
2017,01,03,09,46,-10.70
2017,01,03,09,47,-10.60
2017,01,03,09,48,-10.50
2017,01,03,09,49,-10.40
2017,01,03,09,50,-10.30
2017,01,03,09,51,-10.20
2017,01,03,09,52,-10.10
2017,01,03,09,53,-10.00
2017,01,03,09,54,-9.90
2017,01,03,09,55,-9.80
2017,01,03,09,56,-9.70
2017,01,03,09,57,-9.70
2017,01,03,09,58,-9.60
2017,01,03,09,59,-9.50
2017,01,03,10,00,-9.40
2017,01,03,10,01,-9.40
2017,01,03,10,02,-9.40
2017,01,03,10,03,-9.30
2017,01,03,10,04,-9.30
2017,01,03,10,05,-9.30
2017,01,03,10,06,-9.20
2017,01,03,10,07,-9.20
2017,01,03,10,08,-9.10
2017,01,03,10,09,-9.00
2017,01,03,10,10,-9.00
2017,01,03,10,11,-9.00
2017,01,03,10,12,-9.00
2017,01,03,10,13,-8.90
2017,01,03,10,14,-8.90
2017,01,03,10,15,-8.80
2017,01,03,10,16,-8.70
2017,01,03,10,17,-8.60
2017,01,03,10,18,-8.60
2017,01,03,10,19,-8.50
2017,01,03,10,20,-8.60
2017,01,03,10,21,-8.60
2017,01,03,10,22,-8.60
2017,01,03,10,23,-8.60
2017,01,03,10,24,-8.50
2017,01,03,10,25,-8.50
2017,01,03,10,26,-8.40
2017,01,03,10,27,-8.40
2017,01,03,10,28,-8.40
2017,01,03,10,29,-8.30
2017,01,03,10,30,-8.30
2017,01,03,10,31,-8.30
2017,01,03,10,32,-8.30
2017,01,03,10,33,-8.20
2017,01,03,10,34,-8.20
2017,01,03,10,35,-8.10
2017,01,03,10,36,-8.00
2017,01,03,10,37,-7.90
2017,01,03,10,38,-7.80
2017,01,03,10,39,-7.80
2017,01,03,10,40,-7.70
2017,01,03,10,41,-7.60
2017,01,03,10,42,-7.60
2017,01,03,10,43,-7.60
2017,01,03,10,44,-7.60
2017,01,03,10,45,-7.50
2017,01,03,10,46,-7.50
2017,01,03,10,47,-7.40
2017,01,03,10,48,-7.30
2017,01,03,10,49,-7.20
2017,01,03,10,50,-7.20
2017,01,03,10,51,-7.30
2017,01,03,10,52,-7.30
2017,01,03,10,53,-7.30
2017,01,03,10,54,-7.30
2017,01,03,10,55,-7.20
2017,01,03,10,56,-7.20
2017,01,03,10,57,-7.20
2017,01,03,10,58,-7.10
2017,01,03,10,59,-7.10
2017,01,03,11,00,-7.10
2017,01,03,11,01,-7.10
2017,01,03,11,02,-7.10
2017,01,03,11,03,-7.10
2017,01,03,11,04,-7.00
2017,01,03,11,05,-7.00
2017,01,03,11,06,-7.00
2017,01,03,11,07,-7.00
2017,01,03,11,08,-6.90
2017,01,03,11,09,-6.90
2017,01,03,11,10,-6.80
2017,01,03,11,11,-6.70
2017,01,03,11,12,-6.70
2017,01,03,11,13,-6.60
2017,01,03,11,14,-6.50
2017,01,03,11,15,-6.50
2017,01,03,11,16,-6.50
2017,01,03,11,17,-6.40
2017,01,03,11,18,-6.40
2017,01,03,11,19,-6.40
2017,01,03,11,20,-6.40
2017,01,03,11,21,-6.30
2017,01,03,11,22,-6.30
2017,01,03,11,23,-6.20
2017,01,03,11,24,-6.10
2017,01,03,11,25,-6.00
2017,01,03,11,26,-5.90
2017,01,03,11,27,-5.80
2017,01,03,11,28,-5.70
2017,01,03,11,29,-5.60
2017,01,03,11,30,-5.50
2017,01,03,11,31,-5.40
2017,01,03,11,32,-5.30
2017,01,03,11,33,-5.20
2017,01,03,11,34,-5.10
2017,01,03,11,35,-5.00
2017,01,03,11,36,-4.90
2017,01,03,11,37,-4.90
2017,01,03,11,38,-4.80
2017,01,03,11,39,-4.70
2017,01,03,11,40,-4.60
2017,01,03,11,41,-4.60
2017,01,03,11,42,-4.50
2017,01,03,11,43,-4.40
2017,01,03,11,44,-4.40
2017,01,03,11,45,-4.40
2017,01,03,11,46,-4.40
2017,01,03,11,47,-4.40
2017,01,03,11,48,-4.40
2017,01,03,11,49,-4.30
2017,01,03,11,50,-4.30
2017,01,03,11,51,-4.20
2017,01,03,11,52,-4.10
2017,01,03,11,53,-4.00
2017,01,03,11,54,-4.00
2017,01,03,11,55,-3.90
2017,01,03,11,56,-3.90
2017,01,03,11,57,-3.90
2017,01,03,11,58,-3.90
2017,01,03,11,59,-3.90
2017,01,03,12,00,-3.80
2017,01,03,12,01,-3.70
2017,01,03,12,02,-3.70
2017,01,03,12,03,-3.60
2017,01,03,12,04,-3.60
2017,01,03,12,05,-3.60
2017,01,03,12,06,-3.60
2017,01,03,12,07,-3.70
2017,01,03,12,08,-3.80
2017,01,03,12,09,-3.90
2017,01,03,12,10,-4.00
2017,01,03,12,11,-4.10
2017,01,03,12,12,-4.20
2017,01,03,12,13,-4.30
2017,01,03,12,14,-4.30
2017,01,03,12,15,-4.40
2017,01,03,12,16,-4.40
2017,01,03,12,17,-4.40
2017,01,03,12,18,-4.40
2017,01,03,12,19,-4.50
2017,01,03,12,20,-4.50
2017,01,03,12,21,-4.60
2017,01,03,12,22,-4.60
2017,01,03,12,23,-4.60
2017,01,03,12,24,-4.60
2017,01,03,12,25,-4.60
2017,01,03,12,26,-4.60
2017,01,03,12,27,-4.70
2017,01,03,12,28,-4.60
2017,01,03,12,29,-4.60
2017,01,03,12,30,-4.50
2017,01,03,12,31,-4.40
2017,01,03,12,32,-4.40
2017,01,03,12,33,-4.40
2017,01,03,12,34,-4.30
2017,01,03,12,35,-4.30
2017,01,03,12,36,-4.30
2017,01,03,12,37,-4.30
2017,01,03,12,38,-4.20
2017,01,03,12,39,-4.20
2017,01,03,12,40,-4.20
2017,01,03,12,41,-4.20
2017,01,03,12,42,-4.20
2017,01,03,12,43,-4.20
2017,01,03,12,44,-4.20
2017,01,03,12,45,-4.20
2017,01,03,12,46,-4.20
2017,01,03,12,47,-4.10
2017,01,03,12,48,-4.10
2017,01,03,12,49,-4.00
2017,01,03,12,50,-4.10
2017,01,03,12,51,-4.00
2017,01,03,12,52,-4.00
2017,01,03,12,53,-4.00
2017,01,03,12,54,-4.00
2017,01,03,12,55,-4.00
2017,01,03,12,56,-4.00
2017,01,03,12,57,-4.00
2017,01,03,12,58,-4.00
2017,01,03,12,59,-3.90
2017,01,03,13,00,-3.90
2017,01,03,13,01,-3.90
2017,01,03,13,02,-3.90
2017,01,03,13,03,-3.90
2017,01,03,13,04,-3.90
2017,01,03,13,05,-3.80
2017,01,03,13,06,-3.80
2017,01,03,13,07,-3.80
2017,01,03,13,08,-3.80
2017,01,03,13,09,-3.70
2017,01,03,13,10,-3.70
2017,01,03,13,11,-3.70
2017,01,03,13,12,-3.70
2017,01,03,13,13,-3.70
2017,01,03,13,14,-3.60
2017,01,03,13,15,-3.60
2017,01,03,13,16,-3.60
2017,01,03,13,17,-3.50
2017,01,03,13,18,-3.40
2017,01,03,13,19,-3.40
2017,01,03,13,20,-3.40
2017,01,03,13,21,-3.30
2017,01,03,13,22,-3.30
2017,01,03,13,23,-3.30
2017,01,03,13,24,-3.30
2017,01,03,13,25,-3.30
2017,01,03,13,26,-3.30
2017,01,03,13,27,-3.30
2017,01,03,13,28,-3.30
2017,01,03,13,29,-3.40
2017,01,03,13,30,-3.40
2017,01,03,13,31,-3.40
2017,01,03,13,32,-3.40
2017,01,03,13,33,-3.40
2017,01,03,13,34,-3.40
2017,01,03,13,35,-3.40
2017,01,03,13,36,-3.40
2017,01,03,13,37,-3.40
2017,01,03,13,38,-3.40
2017,01,03,13,39,-3.40
2017,01,03,13,40,-3.30
2017,01,03,13,41,-3.30
2017,01,03,13,42,-3.30
2017,01,03,13,43,-3.30
2017,01,03,13,44,-3.30
2017,01,03,13,45,-3.20
2017,01,03,13,46,-3.20
2017,01,03,13,47,-3.20
2017,01,03,13,48,-3.20
2017,01,03,13,49,-3.20
2017,01,03,13,50,-3.20
2017,01,03,13,51,-3.20
2017,01,03,13,52,-3.20
2017,01,03,13,53,-3.20
2017,01,03,13,54,-3.20
2017,01,03,13,55,-3.20
2017,01,03,13,56,-3.20
2017,01,03,13,57,-3.20
2017,01,03,13,58,-3.20
2017,01,03,13,59,-3.20
2017,01,03,14,00,-3.20
2017,01,03,14,01,-3.20
2017,01,03,14,02,-3.10
2017,01,03,14,03,-3.10
2017,01,03,14,04,-3.10
2017,01,03,14,05,-3.10
2017,01,03,14,06,-3.10
2017,01,03,14,07,-3.10
2017,01,03,14,08,-3.10
2017,01,03,14,09,-3.10
2017,01,03,14,10,-3.10
2017,01,03,14,11,-3.10
2017,01,03,14,12,-3.10
2017,01,03,14,13,-3.10
2017,01,03,14,14,-3.00
2017,01,03,14,15,-3.00
2017,01,03,14,16,-3.00
2017,01,03,14,17,-3.00
2017,01,03,14,18,-3.00
2017,01,03,14,19,-3.00
2017,01,03,14,20,-3.00
2017,01,03,14,21,-3.00
2017,01,03,14,22,-3.00
2017,01,03,14,23,-3.00
2017,01,03,14,24,-2.90
2017,01,03,14,25,-2.90
2017,01,03,14,26,-2.90
2017,01,03,14,27,-2.90
2017,01,03,14,28,-2.90
2017,01,03,14,29,-2.90
2017,01,03,14,30,-2.90
2017,01,03,14,31,-2.90
2017,01,03,14,32,-2.90
2017,01,03,14,33,-2.90
2017,01,03,14,34,-2.90
2017,01,03,14,35,-2.90
2017,01,03,14,36,-2.80
2017,01,03,14,37,-2.80
2017,01,03,14,38,-2.80
2017,01,03,14,39,-2.80
2017,01,03,14,40,-2.80
2017,01,03,14,41,-2.80
2017,01,03,14,42,-2.80
2017,01,03,14,43,-2.80
2017,01,03,14,44,-2.80
2017,01,03,14,45,-2.80
2017,01,03,14,46,-2.90
2017,01,03,14,47,-2.90
2017,01,03,14,48,-2.90
2017,01,03,14,49,-2.90
2017,01,03,14,50,-2.90
2017,01,03,14,51,-2.90
2017,01,03,14,52,-3.00
2017,01,03,14,53,-3.00
2017,01,03,14,54,-3.10
2017,01,03,14,55,-3.10
2017,01,03,14,56,-3.10
2017,01,03,14,57,-3.10
2017,01,03,14,58,-3.20
2017,01,03,14,59,-3.20
2017,01,03,15,00,-3.20
2017,01,03,15,01,-3.30
2017,01,03,15,02,-3.30
2017,01,03,15,03,-3.30
2017,01,03,15,04,-3.40
2017,01,03,15,05,-3.40
2017,01,03,15,06,-3.40
2017,01,03,15,07,-3.50
2017,01,03,15,08,-3.50
2017,01,03,15,09,-3.60
2017,01,03,15,10,-3.60
2017,01,03,15,11,-3.70
2017,01,03,15,12,-3.70
2017,01,03,15,13,-3.80
2017,01,03,15,14,-3.80
2017,01,03,15,15,-3.90
2017,01,03,15,16,-4.00
2017,01,03,15,17,-4.00
2017,01,03,15,18,-4.10
2017,01,03,15,19,-4.20
2017,01,03,15,20,-4.20
2017,01,03,15,21,-4.30
2017,01,03,15,22,-4.40
2017,01,03,15,23,-4.50
2017,01,03,15,24,-4.50
2017,01,03,15,25,-4.60
2017,01,03,15,26,-4.70
2017,01,03,15,27,-4.70
2017,01,03,15,28,-4.80
2017,01,03,15,29,-4.80
2017,01,03,15,30,-4.90
2017,01,03,15,31,-4.90
2017,01,03,15,32,-4.90
2017,01,03,15,33,-5.00
2017,01,03,15,34,-5.00
2017,01,03,15,35,-5.10
2017,01,03,15,36,-5.10
2017,01,03,15,37,-5.10
2017,01,03,15,38,-5.20
2017,01,03,15,39,-5.20
2017,01,03,15,40,-5.20
2017,01,03,15,41,-5.30
2017,01,03,15,42,-5.30
2017,01,03,15,43,-5.30
2017,01,03,15,44,-5.30
2017,01,03,15,45,-5.30
2017,01,03,15,46,-5.30
2017,01,03,15,47,-5.30
2017,01,03,15,48,-5.30
2017,01,03,15,49,-5.40
2017,01,03,15,50,-5.40
2017,01,03,15,51,-5.40
2017,01,03,15,52,-5.40
2017,01,03,15,53,-5.40
2017,01,03,15,54,-5.40
2017,01,03,15,55,-5.40
2017,01,03,15,56,-5.40
2017,01,03,15,57,-5.40
2017,01,03,15,58,-5.50
2017,01,03,15,59,-5.50
2017,01,03,16,00,-5.60
2017,01,03,16,01,-5.60
2017,01,03,16,02,-5.60
2017,01,03,16,03,-5.60
2017,01,03,16,04,-5.70
2017,01,03,16,05,-5.70
2017,01,03,16,06,-5.70
2017,01,03,16,07,-5.70
2017,01,03,16,08,-5.80
2017,01,03,16,09,-5.80
2017,01,03,16,10,-5.80
2017,01,03,16,11,-5.80
2017,01,03,16,12,-5.80
2017,01,03,16,13,-5.80
2017,01,03,16,14,-5.80
2017,01,03,16,15,-5.80
2017,01,03,16,16,-5.80
2017,01,03,16,17,-5.80
2017,01,03,16,18,-5.90
2017,01,03,16,19,-5.90
2017,01,03,16,20,-5.90
2017,01,03,16,21,-5.90
2017,01,03,16,22,-5.90
2017,01,03,16,23,-5.90
2017,01,03,16,24,-5.90
2017,01,03,16,25,-6.00
2017,01,03,16,26,-6.00
2017,01,03,16,27,-6.00
2017,01,03,16,28,-6.00
2017,01,03,16,29,-6.00
2017,01,03,16,30,-6.10
2017,01,03,16,31,-6.10
2017,01,03,16,32,-6.10
2017,01,03,16,33,-6.20
2017,01,03,16,34,-6.20
2017,01,03,16,35,-6.20
2017,01,03,16,36,-6.20
2017,01,03,16,37,-6.20
2017,01,03,16,38,-6.20
2017,01,03,16,39,-6.30
2017,01,03,16,40,-6.30
2017,01,03,16,41,-6.30
2017,01,03,16,42,-6.30
2017,01,03,16,43,-6.40
2017,01,03,16,44,-6.40
2017,01,03,16,45,-6.40
2017,01,03,16,46,-6.40
2017,01,03,16,47,-6.40
2017,01,03,16,48,-6.40
2017,01,03,16,49,-6.50
2017,01,03,16,50,-6.50
2017,01,03,16,51,-6.50
2017,01,03,16,52,-6.60
2017,01,03,16,53,-6.60
2017,01,03,16,54,-6.60
2017,01,03,16,55,-6.60
2017,01,03,16,56,-6.60
2017,01,03,16,57,-6.60
2017,01,03,16,58,-6.70